Regional Weather Roundup
Issued by NWS

Home | Current Version | Previous Version | Graphics & Text | Print | Product List | Glossary On
Versions: 1 2 3 4 5 6 7 8 9 10 11 12 13 14 15 16 17 18 19 20 21 22 23 24 25 26 27 28 29 30 31 32 33 34 35 36 37 38 39 40 41 42 43 44 45 46 47 48 49 50
000
ASUS44 KMEG 162310
RWRTN
TENNESSEE HOURLY STATE WEATHER ROUNDUP
NATIONAL WEATHER SERVICE MEMPHIS TN
500 PM CST MON JAN 16 2017

TNZ002-004-019-021-049-052-054-088>092-170000-
WEST TENNESSEE

CITY           SKY/WX    TMP DP  RH WIND       PRES   REMARKS
MEMPHIS INTL   RAIN      65  62  90 S15G23    30.01S
NWS MEMPHIS      N/A     66 N/A N/A MISG        N/A
JACKSON        CLOUDY    66  60  81 S5        30.04F
DYERSBURG      CLOUDY    66  57  72 S9        30.01S
UNION CITY     CLOUDY    63  63 100 CALM      30.00F
PARIS          MOCLDY    63  54  72 S10       30.04F
HUNTINGDON     CLOUDY    66  57  72 S10       30.03F
$$

TNZ008-025-027-028-033-062-065-066-170000-
NORTH MIDDLE TENNESSEE

CITY           SKY/WX    TMP DP  RH WIND       PRES   REMARKS
NASHVILLE      CLOUDY    68  50  52 S9        30.12S
PORTLAND       MOCLDY    66  52  59 S12       30.11S
CLARKSVILLE    LGT RAIN  65  51  60 S7        30.07S
SMYRNA         CLOUDY    67  52  58 SE8       30.12F
GALLATIN       MOCLDY    66  52  59 S5        30.14S
CROSSVILLE     MOCLDY    59  51  75 S5        30.20S
$$

TNZ061-075-076-078-094-096-097-170000-
SOUTH MIDDLE TENNESSEE

CITY           SKY/WX    TMP DP  RH WIND       PRES   REMARKS
FAYETTEVILLE   PTCLDY    66  52  59 S8        30.15S
TULLAHOMA      MOCLDY    66  46  48 S5        30.17S
WINCHESTER     CLOUDY    66  50  55 S6        30.17S
MCMINNVILLE    MOCLDY    66  50  55 S6        30.16S
COLUMBIA       PTCLDY    66  57  72 S9        30.10S
SHELBYVILLE    PTCLDY    70  52  52 S9        30.14F
$$

TNZ017-018-042-046-047-170000-
NORTHEAST TENNESSEE

CITY           SKY/WX    TMP DP  RH WIND       PRES   REMARKS
TRI CITIES     MOCLDY    61  47  59 CALM      30.22S
ELIZABETHTON   CLOUDY    59  52  77 CALM      30.23R
$$

TNZ012-013-036-069-073-074-170000-
CENTRAL EAST TENNESSEE

CITY           SKY/WX    TMP DP  RH WIND       PRES   REMARKS
KNOXVILLE      CLOUDY    60  53  77 CALM      30.20S
OAK RIDGE      CLOUDY    59  54  83 CALM      30.22R
GATLINBURG     MOCLDY    57  54  88 CALM      30.20S
MORRISTOWN     MOCLDY    59  57  94 CALM      30.21S
JACKSBORO      MOCLDY    57  54  88 CALM      30.24R
$$

TNZ083-085-099-170000-
SOUTHEAST TENNESSEE

CITY           SKY/WX    TMP DP  RH WIND       PRES   REMARKS
CHATTANOOGA    CLOUDY    65  53  65 SE7       30.20R
$$

SKY/WX REPORTED AS FAIR MEANS FEW OR NO CLOUDS BELOW
12 THOUSAND FEET.




USA.gov is the U.S. government's official web portal to all federal, state and local government web resources and services.